Tracking 23762 objects as of 20-Oct-2021
HD Live streaming from Space Station
objects crossing your sky now

ARIANE 5 R/B

Track ARIANE 5 R/B now!


NORAD ID: 27462
Int'l Code: 2002-035C
Perigee: 646.3 km
Apogee: 36,155.4 km
Inclination: 6.0 °
Period: 646.7 minutes
Semi major axis: 24771 km
RCS: 26.2715 m2 (large)
Launch date: July 5, 2002
Source: France (FR)
Launch site: FRENCH GUIANA (FRGUI)

Note: This is a ROCKET BODY
aabbcc
Your satellite tracking list
Your tracking list is empty




NASA's NSSDC Master Catalog

Two Line Element Set (TLE):
1 27462U 02035C   21292.17679237  .00000025  00000-0  17517-2 0  9999
2 27462   5.9614  10.8340 7167216 270.0451  11.2771  2.22671734156996
Source of the keplerian elements: AFSPC